Flag for Poland Weather past 2 weeks in Legnica, Poland

Now
47 °F

Passing clouds.


Feels Like: 47 °F
Forecast: 24 / 58 °F
Wind: 1 mph from North

Location: Wroclaw Ii


UV Index: 3 (Moderate)

Visibility: 31 mi


Pressure: 30.39 "Hg

Humidity: 45%

Dew point: 27 °F

Location of LegnicaLocation

Historic Weather in Legnica

°F

Legnica temperature yesterday

Maximum temperature yesterday: 50 °F (at 2:00 PM)
Minimum temperature yesterday: 37 °F (at 8:00 AM)
Average temperature yesterday: 43 °F

Past Weeks' High & Low Weather Summary

 TemperatureHumidityPressure
High72 °F (Apr 8, 3:00 PM)96% (Apr 7, 4:00 AM)30.39 "Hg (Apr 7, 4:00 AM)
Low35 °F (Apr 2, 5:00 AM)34% (Apr 3, 4:00 PM)29.66 "Hg (Apr 3, 5:00 PM)
Average49 °F71%29.99 "Hg
* Reported Apr 1 8:00 PM — Apr 16 8:00 PM, Legnica, Weather by CustomWeather, © 2014

Note: Actual official high and low records may vary slightly from our data, if they occured in-between our weather recording intervals... More about our weather records

Advertising

Historic Weather Conditions — Data for Previous 24 hours

 ConditionsComfort  
Time TempWeatherWind HumidityBarometerVisibility
8:00 PM
Apr 16
47 °FPassing clouds.1 mph45%30.39 "Hg31 mi
7:00 PM49 °FScattered clouds.3 mph41%30.38 "Hg31 mi
6:00 PM50 °FScattered clouds.2 mph42%30.37 "Hg31 mi
5:00 PM52 °FScattered clouds.5 mph35%30.37 "Hg31 mi
4:00 PM50 °FScattered clouds.5 mph42%30.37 "Hg31 mi
3:00 PM49 °FPartly sunny.5 mph48%30.38 "Hg31 mi
2:00 PM47 °FPartly sunny.3 mph61%30.38 "Hg31 mi
1:00 PM44 °FOvercast.5 mph66%30.39 "Hg31 mi
12:00 PM42 °FOvercast.5 mph66%30.39 "Hg31 mi
11:00 AM42 °FOvercast.5 mph67%30.38 "Hg31 mi
10:00 AM42 °FPartly sunny.5 mph65%30.36 "Hg31 mi
9:00 AM40 °FPassing clouds.31 mph71%30.34 "Hg3 mi
8:00 AM39 °FScattered clouds.5 mph77%30.33 "Hg31 mi
7:00 AM38 °FPassing clouds.3 mph83%30.32 "Hg31 mi
6:00 AM40 °FOvercast.5 mph85%30.29 "Hg31 mi
5:00 AM42 °FOvercast.2 mph85%30.26 "Hg31 mi
4:00 AM42 °FOvercast.3 mph84%30.24 "Hg31 mi
3:00 AM42 °FOvercast.2 mph91%30.22 "Hg31 mi
2:00 AM42 °FOvercast.3 mph92%30.20 "Hg31 mi
11:00 PM
Apr 15
41 °FPassing clouds.3 mph92%30.15 "Hg31 mi
10:00 PMN/APassing clouds.26 mphN/AN/A3 mi
9:00 PM43 °FSprinkles. Overcast.2 mph89%30.11 "Hg16 mi
Weather by CustomWeather, © 2014

See weather overview